Tracking 21094 objects as of 12-Aug-2020
HD Live streaming from Space Station
objects crossing your sky now
Track the most recent launched group of Starlink satellites

SCOUT G-1 R/B

Track SCOUT G-1 R/B now!
10-day predictions


NORAD ID: 17071
Int'l Code: 1986-088B
Perigee: 961.3 km
Apogee: 1,015.4 km
Inclination: 89.5 °
Period: 104.7 minutes
Semi major axis: 7359 km
RCS: 0.8546 m2 (medium)
Launch date: November 14, 1986
Source: United States (US)
Launch site: AIR FORCE WESTERN TEST RANGE (AFWTR)

Note: This is a ROCKET BODY
aabbcc
Your satellite tracking list
Your tracking list is empty




NASA's NSSDC Master Catalog

Two Line Element Set (TLE):
1 17071U 86088B   20225.13276828  .00000031  00000-0  20872-4 0  9991
2 17071  89.5281 261.3657 0036758 215.7341 144.1363 13.75133145692667
Source of the keplerian elements: AFSPC